Overview Statistics Trail Chart Weather Telemetry Raw packets
 

This is the latest recevied weather packets stored in our database for station/object K5SVV. If no packets are shown the sender has not sent any weather packets the latest 10 day(s).

<< 58 59 60 61 62 63 64 >>
Time Temp. Humidity Pressure Rain* Wind** Luminosity Snow
1788266226 24.44° C 84% 1016.6 hPa 0 mm - 28 W/m² -
1788265921 24.44° C 83% 1016.5 hPa 0 mm - 24 W/m² -
1788265620 24.44° C 83% 1016.1 hPa 0 mm - 19 W/m² -
1788265315 24.44° C 83% 1016.5 hPa 0 mm - 14 W/m² -
1788265009 24.44° C 83% 1016.1 hPa 0 mm - 11 W/m² -
1788264704 24.44° C 82% 1016 hPa 0 mm - 6 W/m² -
1788264404 24.44° C 82% 1016.1 hPa 0 mm - 3 W/m² -
1788264099 24.44° C 82% 1016 hPa 0 mm - 1 W/m² -
1788263794 24.44° C 81% 1015.8 hPa 0 mm - 0 W/m² -
1788263491 24.44° C 81% 1015.8 hPa 0 mm - 0 W/m² -
1788263187 24.44° C 81% 1016 hPa 0 mm - 0 W/m² -
1788262886 24.44° C 81% 1015.9 hPa 0 mm - 0 W/m² -
1788262580 24.44° C 81% 1015.6 hPa 0 mm - 0 W/m² -
1788262275 24.44° C 81% 1015.7 hPa 0 mm - 0 W/m² -
1788261975 24.44° C 81% 1015.7 hPa 0 mm - 0 W/m² -
1788261669 24.44° C 81% 1015.6 hPa 0 mm - 0 W/m² -
1788261368 24.44° C 81% 1015.7 hPa 0 mm - 0 W/m² -
1788261067 24.44° C 80% 1015.8 hPa 0 mm - 0 W/m² -
1788260763 25° C 80% 1015.6 hPa 0 mm - 0 W/m² -
1788260466 25° C 80% 1015.8 hPa 0 mm - 0 W/m² -
1788260155 25° C 80% 1015.6 hPa 0 mm - 0 W/m² -
1788259854 25° C 80% 1015.9 hPa 0 mm - 0 W/m² -
1788259551 25° C 80% 1015.5 hPa 0 mm - 0 W/m² -
1788259245 25° C 79% 1015.5 hPa 0 mm - 0 W/m² -
1788258940 25.56° C 79% 1015.7 hPa 0 mm - 0 W/m² -

* Rain latest hour (hover to see other rain measurements)
** Current wind speed in m/s (hover to see current wind gust speed)